Location: Be Tobo
(6.6442°N, 10.6239°W)
Time: 01:23:11
(UTC+00:00)

Cosmos 1066 Rocket - Pass Details

Date: 18 September 2020
Orbit: 798 x 895 km, 81.2° (Epoch: 21 October)

Event Time Altitude Azimuth Distance (km) Brightness Sun altitude
Rises 19:00:24 0° 357° (N) 3,302 7.4 -5.8°
Reaches altitude 10° 19:02:45 10° 358° (N) 2,381 6.6 -6.4°
Maximum altitude 19:08:08 80° 85° (E) 832 4.1 -7.7°
Drops below altitude 10° 19:13:38 10° 172° (S) 2,439 6.5 -9.1°
Sets 19:16:04 0° 173° (S) 3,389 7.2 -9.7°
